"TOA5","AWS1","CR1000","7964","CR1000.Std.14","CPU:AWS1_114.CR1","64363","TBL110"
"TIMESTAMP","RECORD","Wind_spd_WVc(1)","Wind_spd_WVc(2)","Air_Temp_Avg","Humidity_Avg","SW_upper_Wm2_Avg","Rain_Tot","Press_Avg","Issui_Tot","Depth_cm","SR50A_Raw","Quality","Ground_Temp_Avg(1)","Ground_Temp_Avg(2)","SW_lower_Wm2_Avg","Albedo_Avg","SWC_per(1)","SWC_per(2)","Period(1)","Period(2)"
"TS","RN","","","","","","","","","","","","","","","","","","",""
"","","WVc","WVc","Avg","Avg","Avg","Tot","Avg","Tot","Smp","Smp","Smp","Avg","Avg","Avg","Avg","Smp","Smp","Smp","Smp"
"2017-02-05 00:00:00",273805,0.637,193.9,-3.503,43.71,0,0,864.7017,0,79.02,2.405,190,1.406,2.058,0.8158399,0,52.55,60.56,33.92,35.81
"2017-02-05 00:10:00",273806,0.581,190.4,-3.26,41.24,0,0,864.7015,0,78.96,2.404,191,1.407,2.062,1.083316,0,52.55,60.56,33.92,35.81
"2017-02-05 00:20:00",273807,0.752,193.5,-3.158,42.37,0,0,864.7118,0,79.08,2.403,189,1.402,2.053,1.13841,0,52.55,60.56,33.92,35.81
"2017-02-05 00:30:00",273808,0.752,191.1,-2.933,43.08,0.04329214,0,864.7101,0,78.99,2.403,189,1.379,2.037,1.127031,0.884,52.6,60.56,33.94,35.81
"2017-02-05 00:40:00",273809,0.798,197.6,-2.842,45.92,0,0,864.5618,0,79.09,2.401,189,1.375,2.026,0.9069386,0,52.6,60.56,33.94,35.81
"2017-02-05 00:50:00",273810,0.58,197,-2.465,45.68,0.05509913,0,864.4711,0,79.04,2.4,189,1.365,2.024,1.134619,1.125,52.55,60.56,33.92,35.81
"2017-02-05 01:00:00",273811,0.351,185.4,-2.202,46.35,0.08658157,0,864.4514,0,78.95,2.4,189,1.334,2.015,0.8993187,1.575,52.55,60.56,33.92,35.81
"2017-02-05 01:10:00",273812,0.28,59.69,-1.615,40,0.7437477,0,864.4335,0,79.29,2.39,186,1.308,1.997,1.312824,1.452,52.55,60.56,33.92,35.81
"2017-02-05 01:20:00",273813,0.303,41.2,0.357,24.46,2.124819,0,864.2761,0,78.81,2.39,189,1.277,1.971,2.860627,1.391,52.55,60.56,33.92,35.81
"2017-02-05 01:30:00",273814,0.301,164.9,-0.843,39.67,0.2124705,0,864.1415,0,78.89,2.398,191,1.259,2.012,0.4818029,0.615,52.55,60.56,33.92,35.81
"2017-02-05 01:40:00",273815,0.455,186.3,-1.528,41.42,0,0,863.936,0,79,2.395,189,1.25,2.013,0.4628071,0,52.6,60.56,33.94,35.81
"2017-02-05 01:50:00",273816,0.167,183.6,-0.982,37.74,0.1219648,0,863.8873,0,78.98,2.395,192,1.246,1.991,0.9331908,2.25,52.55,60.5,33.92,35.79
"2017-02-05 02:00:00",273817,0.526,186.3,-1.013,40.84,0.03540891,0,863.8704,0,79.02,2.395,190,1.244,1.982,0.9559461,0.723,52.55,60.56,33.92,35.81
"2017-02-05 02:10:00",273818,0.548,180.4,-1.157,48.63,0,0,863.6174,0,78.85,2.396,189,1.24,1.986,0.792827,0,52.55,60.5,33.92,35.79
"2017-02-05 02:20:00",273819,0.442,178.3,-0.884,44.3,0,0,863.2274,0,78.83,2.396,189,1.231,2.005,0.857315,0,52.6,60.56,33.94,35.81
"2017-02-05 02:30:00",273820,0.378,168.2,-0.867,50.65,0,0,863.1599,0,78.81,2.395,190,1.238,2.017,0.6221224,0,52.55,60.56,33.92,35.81
"2017-02-05 02:40:00",273821,0.225,169,-0.629,50.19,0,0,863.1451,0,78.91,2.395,178,1.259,2.012,0.7548924,0,52.55,60.56,33.92,35.81
"2017-02-05 02:50:00",273822,0.162,231,-0.549,42.99,0,0,863.1556,0,78.34,2.399,190,1.261,2.047,0.4627984,0,52.55,60.56,33.92,35.81
"2017-02-05 03:00:00",273823,0.283,163.5,-1.261,52.95,0,0,863.1219,0,78.95,2.399,190,1.247,2.043,0.03793429,0,52.55,60.56,33.92,35.81
"2017-02-05 03:10:00",273824,0.361,177.2,-1.538,53.78,0,0,862.8351,0,78.79,2.399,189,1.253,2.015,0.3034743,0,52.55,60.56,33.92,35.81
"2017-02-05 03:20:00",273825,0.666,181.8,-1.695,56.46,0,0,862.6559,0,78.81,2.399,190,1.254,2.023,0.4021035,0,52.55,60.56,33.92,35.81
"2017-02-05 03:30:00",273826,0.391,175,-1.214,50.69,0,0,862.6116,0,78.62,2.4,190,1.251,2.025,0.7814465,0,52.55,60.5,33.92,35.79
"2017-02-05 03:40:00",273827,0.206,160.7,-1.348,52.53,0,0,862.386,0,78.88,2.396,183,1.254,2.01,0.6524698,0,52.55,60.56,33.92,35.81
"2017-02-05 03:50:00",273828,0.214,178.6,-0.153,44.01,0.2635992,0,862.1331,0,77.95,2.4,191,1.256,2.017,1.456677,2.593,52.55,60.56,33.92,35.81
"2017-02-05 04:00:00",273829,0.083,244,-0.047,44.96,0.6019503,0,862.2849,0,78.4,2.394,190,1.254,2.042,1.153202,1.501,52.55,60.56,33.92,35.81
"2017-02-05 04:10:00",273830,0.28,126,0.537,41.03,0.9324329,0,862.3692,0,79.05,2.386,190,1.284,2.022,1.566686,1.734,52.55,60.5,33.92,35.79
"2017-02-05 04:20:00",273831,0.178,291,0.974,38.13,0.6530964,0,862.4072,0,78.54,2.39,190,1.287,2.029,1.452883,2.325,52.55,60.56,33.92,35.81
"2017-02-05 04:30:00",273832,0.319,131.6,0.907,39.78,0.1967158,0,862.6222,0,78.07,2.396,192,1.29,2.05,0.9369771,2.303,52.55,60.5,33.92,35.79
"2017-02-05 04:40:00",273833,0.232,146.4,0.701,40.74,0.02360589,0,862.4599,0,78.66,2.389,192,1.291,2.036,0.7283384,0.482,52.55,60.5,33.92,35.79
"2017-02-05 04:50:00",273834,0.327,149.4,1.159,38.32,0.3029423,0,862.268,0,78.3,2.395,189,1.334,2.022,1.069747,2.402,52.55,60.56,33.92,35.81
"2017-02-05 05:00:00",273835,0.473,156.5,0.432,44.92,0,0,861.6608,0,78.41,2.392,190,1.331,2.021,0.4931458,0,52.55,60.5,33.92,35.79
"2017-02-05 05:10:00",273836,0.215,157.5,1.088,39.95,0,0,861.6299,0,78.43,2.39,191,1.326,2.021,0.9179938,0,52.55,60.5,33.92,35.79
"2017-02-05 05:20:00",273837,0.473,123.1,1.456,38.47,0.02360498,0,861.9416,0,78.53,2.389,192,1.322,2.016,1.100044,0.755,52.55,60.5,33.92,35.79
"2017-02-05 05:30:00",273838,0.34,124.8,1.308,40.1,0,0,862.0616,0,78.28,2.393,192,1.319,2.012,0.64106,0,52.55,60.5,33.92,35.79
"2017-02-05 05:40:00",273839,0.343,130.7,0.752,43.44,0,0,861.9973,0,78.65,2.389,190,1.309,2.003,0.159306,0,52.55,60.5,33.92,35.79
"2017-02-05 05:50:00",273840,0.397,131.2,1.286,38.86,0,0,861.9841,0,78.37,2.39,192,1.284,1.996,1.179546,0,52.49,60.5,33.91,35.79
"2017-02-05 06:00:00",273841,0.562,133.9,1.395,39.21,0,0,861.9091,0,77.88,2.395,192,1.258,1.998,1.604244,0,52.55,60.56,33.92,35.81
"2017-02-05 06:10:00",273842,0.472,146.3,1.228,41.56,0,0,861.7545,0,78.18,2.392,191,1.228,1.995,1.243915,0,52.55,60.5,33.92,35.79
"2017-02-05 06:20:00",273843,0.332,129.3,1.632,39.43,0,0,862.0241,0,78.3,2.389,190,1.221,1.986,1.55863,0,52.55,60.5,33.92,35.79
"2017-02-05 06:30:00",273844,0.441,120.2,1.536,41.17,0,0,862.0304,0,78.42,2.39,190,1.208,1.98,1.615476,0,52.55,60.5,33.92,35.79
"2017-02-05 06:40:00",273845,0.165,92.2,1.357,41.57,0,0,862.2012,0,78.39,2.39,190,1.212,1.978,0.9783756,0,52.55,60.5,33.92,35.79
"2017-02-05 06:50:00",273846,0.013,155.1,1.25,42.92,0.2989062,0,862.2792,0,78.3,2.392,192,1.226,1.977,1.171771,3.452,52.55,60.5,33.92,35.79
"2017-02-05 07:00:00",273847,0.407,100.3,1.154,43.44,1.368675,0,862.2875,0,78.43,2.39,189,1.22,1.976,1.831601,1.422,52.55,60.5,33.92,35.79
"2017-02-05 07:10:00",273848,0.352,83.6,1.378,42.79,4.129621,0,862.3234,0,78.15,2.392,192,1.242,1.976,4.243398,1.03,52.55,60.5,33.92,35.79
"2017-02-05 07:20:00",273849,0.532,83.8,1.315,45.02,6.147236,0,862.2054,0,78.24,2.393,190,1.256,1.976,5.665448,0.929,52.55,60.5,33.92,35.79
"2017-02-05 07:30:00",273850,0.729,114.1,0.903,50.4,7.378256,0,862.1949,0,78.25,2.394,190,1.272,1.976,6.203931,0.842,52.55,60.5,33.92,35.79
"2017-02-05 07:40:00",273851,1.013,132.1,0.539,57.03,8.876719,0,862.2833,0,78.06,2.398,191,1.276,1.976,7.026824,0.792,52.55,60.5,33.92,35.79
"2017-02-05 07:50:00",273852,0.831,140.3,0.014,63.69,10.29259,0,862.4288,0,78.11,2.4,190,1.283,1.976,7.140588,0.699,52.55,60.5,33.92,35.79
"2017-02-05 08:00:00",273853,0.708,53.4,-0.287,65.78,15.51951,0,862.4541,0,78.06,2.401,192,1.285,1.976,10.08708,0.65,52.55,60.5,33.92,35.79
"2017-02-05 08:10:00",273854,0.558,124.9,-0.517,68.27,16.50669,0,862.3635,0,78.06,2.402,189,1.279,1.976,11.06545,0.67,52.55,60.5,33.92,35.79
"2017-02-05 08:20:00",273855,1.29,144.8,-0.814,70.59,16.79379,0,862.1885,0,78.12,2.404,190,1.276,1.976,11.89972,0.709,52.55,60.5,33.92,35.79
"2017-02-05 08:30:00",273856,0.666,141.7,-1.51,81.2,18.04055,0,862.0705,0,78.17,2.406,168,1.267,1.976,12.65056,0.701,52.55,60.5,33.92,35.79
"2017-02-05 08:40:00",273857,0.498,134.8,-1.88,88.4,23.84955,0,862.0283,0,77.67,2.412,184,1.25,1.976,16.74986,0.702,52.55,60.5,33.92,35.79
"2017-02-05 08:50:00",273858,0.617,138.9,-2.043,93.4,27.30663,0,862.0262,0,78.54,2.404,182,1.228,1.976,18.94929,0.694,52.55,60.5,33.92,35.79
"2017-02-05 09:00:00",273859,0.771,135.9,-2.36,97.8,30.12657,0,861.9166,0,78.89,2.403,192,1.225,1.976,20.50407,0.681,52.55,60.56,33.92,35.81
"2017-02-05 09:10:00",273860,0.725,142.2,-2.807,99.9,36.60418,0,861.4424,0.5,79.07,2.401,197,1.229,1.976,24.74747,0.676,52.55,60.5,33.92,35.79
"2017-02-05 09:20:00",273861,0.402,183.6,-2.357,100,45.56349,0,861.3264,0,79.07,2.398,200,1.236,1.976,31.34957,0.688,52.55,60.5,33.92,35.79
"2017-02-05 09:30:00",273862,0.251,145.3,-2.214,99.9,44.93028,0,861.4234,0,79.49,2.396,190,1.236,1.976,32.58581,0.725,52.55,60.5,33.92,35.79
"2017-02-05 09:40:00",273863,0.169,88.3,-2.278,100,52.00176,0,861.2653,0.5,79.8,2.391,195,1.223,1.976,40.55687,0.779,52.55,60.5,33.92,35.79
"2017-02-05 09:50:00",273864,0.491,121.3,-2.089,100,62.41234,0,861.0229,0,79.9,2.39,201,1.215,1.976,52.32386,0.838,52.49,60.5,33.91,35.79
"2017-02-05 10:00:00",273865,0.717,140.7,-1.98,100,74.30172,0,860.9681,0,80.2,2.387,196,1.237,1.976,63.85195,0.859,52.55,60.5,33.92,35.79
"2017-02-05 10:10:00",273866,0.999,143.2,-1.788,100,76.40193,0,860.9302,0.5,80.6,2.38,220,1.257,1.976,66.35097,0.869,52.55,60.5,33.92,35.79
"2017-02-05 10:20:00",273867,1.077,145.7,-0.869,100,69.66475,0,860.8248,0,80.6,2.376,271,1.262,1.976,61.29985,0.88,52.55,60.5,33.92,35.79
"2017-02-05 10:30:00",273868,1.171,149.4,0.066,98.1,64.017,0,860.751,0,80.3,2.376,177,1.275,1.976,57.72007,0.902,52.55,60.5,33.92,35.79
"2017-02-05 10:40:00",273869,1.252,143.2,0.208,95.9,69.17705,0,860.5803,0,80.3,2.375,195,1.285,1.976,62.50574,0.904,52.55,60.5,33.92,35.79
"2017-02-05 10:50:00",273870,0.974,152.3,0.394,98.5,65.56658,0,860.5087,0,80.2,2.376,188,1.285,1.976,60.86375,0.928,52.55,60.5,33.92,35.79
"2017-02-05 11:00:00",273871,1.204,142.5,0.295,100,63.6001,0,860.5087,0,80.4,2.375,189,1.285,1.974,59.68061,0.938,52.55,60.5,33.92,35.79
"2017-02-05 11:10:00",273872,0.954,144.1,0.372,100,60.02503,0,860.3674,0.5,80.5,2.373,177,1.285,1.971,57.45842,0.958,52.49,60.5,33.91,35.79
"2017-02-05 11:20:00",273873,1.123,142.1,0.403,100,54.95936,0,860.1082,0,80.5,2.373,212,1.285,1.954,53.90139,0.981,52.55,60.5,33.92,35.79
"2017-02-05 11:30:00",273874,0.859,132.7,0.526,100,45.94105,0,859.9101,0,79.2,2.386,188,1.285,1.947,46.2792,1.008,52.55,60.5,33.92,35.79
"2017-02-05 11:40:00",273875,1.018,138.6,0.419,100,34.34665,0,859.7646,0.5,79.5,2.383,197,1.285,1.946,35.13033,1.023,52.55,60.5,33.92,35.79
"2017-02-05 11:50:00",273876,1.223,137.4,0.355,100,30.5238,0,859.5855,0,80.6,2.372,197,1.285,1.939,31.25856,1.025,52.49,60.5,33.91,35.79
"2017-02-05 12:00:00",273877,0.959,139.5,0.414,100,27.83758,0,859.4633,0,80.6,2.372,188,1.284,1.954,29.52555,1.06,52.55,60.5,33.92,35.79
"2017-02-05 12:10:00",273878,1.058,136.5,0.422,100,31.3222,0,859.2989,0,79.04,2.388,198,1.284,1.952,33.74999,1.078,52.55,60.5,33.92,35.79
"2017-02-05 12:20:00",273879,0.859,143.7,0.423,100,32.24644,0,858.9954,0.5,81.6,2.362,197,1.283,1.95,35.85842,1.111,52.55,60.5,33.92,35.79
"2017-02-05 12:30:00",273880,0.803,144.5,0.426,100,30.37041,0,858.9364,0,81.8,2.36,210,1.28,1.95,34.50463,1.136,52.55,60.5,33.92,35.79
"2017-02-05 12:40:00",273881,0.812,136.1,0.441,100,30.70865,0,858.7383,0,80.8,2.37,199,1.282,1.936,37.11361,1.207,52.49,60.5,33.91,35.79
"2017-02-05 12:50:00",273882,0.699,150.5,0.507,100,33.96122,0,858.5191,0.5,80.7,2.37,208,1.28,1.94,43.89016,1.292,52.55,60.5,33.92,35.79
"2017-02-05 13:00:00",273883,1.003,145.8,0.576,100,37.70147,0,858.3588,0,82.2,2.355,204,1.276,1.938,48.80476,1.294,52.55,60.5,33.92,35.79
"2017-02-05 13:10:00",273884,0.888,144.2,0.664,100,30.8581,0,857.9753,0,82.5,2.352,188,1.276,1.934,40.67443,1.32,52.55,60.5,33.92,35.79
"2017-02-05 13:20:00",273885,0.947,147.5,0.683,100,30.65752,0,857.7772,0.5,82.1,2.356,198,1.263,1.937,41.24325,1.347,52.49,60.5,33.91,35.79
"2017-02-05 13:30:00",273886,0.934,141.5,0.687,100,36.86768,0,857.6275,0,83,2.347,211,1.256,1.937,48.74409,1.323,52.55,60.5,33.92,35.79
"2017-02-05 13:40:00",273887,0.901,156.7,0.773,100,28.19548,0,857.5452,0,83,2.346,195,1.247,1.938,37.34493,1.329,52.55,60.5,33.92,35.79
"2017-02-05 13:50:00",273888,1.329,154.5,0.898,100,42.04741,0,857.4568,0.5,83.2,2.344,192,1.246,1.934,50.02204,1.194,52.55,60.5,33.92,35.79
"2017-02-05 14:00:00",273889,1.522,145.3,1.109,100,53.90139,0,857.1891,0,83.3,2.341,195,1.246,1.932,55.42583,1.03,52.55,60.5,33.92,35.79
"2017-02-05 14:10:00",273890,1.455,146.7,1.418,99.1,59.87557,0,856.7908,0,83.3,2.34,190,1.238,1.928,53.75729,0.898,52.55,60.5,33.92,35.79
"2017-02-05 14:20:00",273891,1.568,150.9,1.642,97.5,86.42708,0,856.5167,0,83,2.343,193,1.229,1.918,62.72948,0.727,52.55,60.5,33.92,35.79
"2017-02-05 14:30:00",273892,1.586,148.2,1.883,95.9,90.47803,0,856.4767,0,82.9,2.343,191,1.212,1.911,62.50954,0.691,52.55,60.5,33.92,35.79
"2017-02-05 14:40:00",273893,1.353,146,1.914,96.6,84.83422,0,856.3144,0,82.9,2.343,193,1.21,1.913,58.69086,0.692,52.55,60.5,33.92,35.79
"2017-02-05 14:50:00",273894,1.639,152.6,2.053,97,47.98602,0,856.0741,0,82.6,2.345,205,1.205,1.897,33.89017,0.708,52.55,60.5,33.92,35.79
"2017-02-05 15:00:00",273895,1.29,158.1,2.082,99.2,46.04273,0,855.7706,0,82.5,2.345,176,1.201,1.894,32.92289,0.715,52.55,60.5,33.92,35.79
"2017-02-05 15:10:00",273896,0.845,164,2.329,99.7,34.52732,0,855.6761,0,82.3,2.347,170,1.198,1.896,25.21372,0.733,52.49,60.5,33.91,35.79
"2017-02-05 15:20:00",273897,0.67,128.1,2.287,99.9,24.84047,0,855.6878,0,82.4,2.347,170,1.198,1.905,18.87331,0.762,52.49,60.5,33.91,35.79
"2017-02-05 15:30:00",273898,0.583,8.79,2.011,100,19.05499,0,855.7262,0,82.3,2.35,170,1.196,1.905,14.78912,0.776,52.49,60.5,33.91,35.79
"2017-02-05 15:40:00",273899,0.733,128.7,1.767,100,26.08722,0,855.5864,0,82.1,2.351,169,1.199,1.914,19.25632,0.745,52.55,60.56,33.92,35.81
"2017-02-05 15:50:00",273900,0.942,131.9,2.036,100,19.25905,0,855.4301,0,82,2.35,169,1.19,1.932,14.37165,0.75,52.55,60.5,33.92,35.79
"2017-02-05 16:00:00",273901,1.045,148.5,2.33,100,15.62823,0,855.286,0,81.9,2.351,176,1.177,1.915,11.76973,0.754,52.55,60.5,33.92,35.79
"2017-02-05 16:10:00",273902,0.701,138.6,2.342,100,19.84333,0,855.0792,0,81.6,2.354,185,1.168,1.91,13.64621,0.689,52.55,60.5,33.92,35.79
"2017-02-05 16:20:00",273903,1.152,159.7,2.428,100,13.5081,0,854.9727,0,81.1,2.358,186,1.168,1.911,8.739792,0.646,52.55,60.5,33.92,35.79
"2017-02-05 16:30:00",273904,0.893,145,2.42,100,13.16995,0,854.9272,0.5,81,2.36,188,1.169,1.93,8.307574,0.636,52.49,60.5,33.91,35.79
"2017-02-05 16:40:00",273905,0.878,144,2.367,100,15.37195,0,854.7063,0,80.7,2.363,183,1.165,1.931,9.399451,0.611,52.49,60.56,33.91,35.81
"2017-02-05 16:50:00",273906,0.875,144.1,2.465,100,9.351185,0,854.5087,0.5,80.9,2.36,190,1.16,1.934,5.645628,0.605,52.49,60.5,33.91,35.79
"2017-02-05 17:00:00",273907,0.531,145.7,2.617,100,3.208775,0,854.6141,0,80.5,2.364,193,1.157,1.901,1.93746,0.601,52.55,60.5,33.92,35.79
"2017-02-05 17:10:00",273908,0.738,126.8,2.516,100,2.94923,0,854.4086,0.5,80.4,2.365,184,1.156,1.924,1.789584,0.602,52.55,60.5,33.92,35.79
"2017-02-05 17:20:00",273909,0.715,125.8,2.399,100,1.002737,0,854.356,0,80.6,2.364,170,1.155,1.927,0.428438,0.377,52.49,60.5,33.91,35.79
"2017-02-05 17:30:00",273910,0.807,128.1,2.447,100,0.3224487,0,854.3542,0,80.4,2.365,179,1.155,1.927,0.1175361,0.297,52.55,60.5,33.92,35.79
"2017-02-05 17:40:00",273911,0.861,112.4,2.401,100,0.07078142,0,854.3376,0,80.5,2.365,195,1.155,1.924,0.003791486,0.016,52.49,60.5,33.91,35.79
"2017-02-05 17:50:00",273912,0.535,113.7,2.446,100,0.05898451,0,854.3594,0.5,79.62,2.373,188,1.155,1.93,0,0,52.49,60.5,33.91,35.79
"2017-02-05 18:00:00",273913,0.721,126.4,2.46,100,0.0117969,0,854.2729,0,80.1,2.369,176,1.155,1.931,0.007582973,0.032,52.49,60.5,33.91,35.79
"2017-02-05 18:10:00",273914,0.939,111.7,2.468,100,0.04325531,0,854.2149,0,79.74,2.372,178,1.155,1.93,0.003791486,0.016,52.49,60.5,33.91,35.79
"2017-02-05 18:20:00",273915,0.879,120,2.468,100,0.03145808,0,854.1733,0,79.63,2.373,182,1.153,1.915,0,0,52.49,60.5,33.91,35.79
"2017-02-05 18:30:00",273916,0.714,107.6,2.36,100,0.007864481,0,854.2766,0,79.66,2.373,189,1.152,1.914,0,0,52.49,60.5,33.91,35.79
"2017-02-05 18:40:00",273917,0.821,125.9,2.348,100,0.04718575,0,854.074,0,79.53,2.374,186,1.145,1.916,0,0,52.49,60.5,33.91,35.79
"2017-02-05 18:50:00",273918,0.575,116.7,2.343,100,0.06684693,0,854.007,0.5,79.64,2.374,179,1.147,1.921,0,0,52.49,60.5,33.91,35.79
"2017-02-05 19:00:00",273919,0.672,126.8,2.303,100,0.09437418,0,853.8373,0,79.6,2.374,196,1.152,1.926,0.003791451,0.008,52.49,60.5,33.91,35.79
"2017-02-05 19:10:00",273920,0.847,130,2.37,100,0.1140328,0,853.8357,0,78.54,2.384,191,1.147,1.917,0,0,52.49,60.5,33.91,35.79
"2017-02-05 19:20:00",273921,1.343,127.6,2.467,100,0.05898089,0,853.7711,0,79.23,2.377,181,1.14,1.913,0.007582505,0.024,52.55,60.5,33.92,35.79
"2017-02-05 19:30:00",273922,1.179,123,2.57,100,0.04718455,0,853.6667,0,79.41,2.375,195,1.138,1.908,0,0,52.55,60.5,33.92,35.79
"2017-02-05 19:40:00",273923,1.195,114.4,2.51,100,0.03145524,0,853.6979,0,79.58,2.373,208,1.13,1.898,0,0,52.49,60.5,33.91,35.79
"2017-02-05 19:50:00",273924,1.235,119.6,2.589,100,0.01179582,0,853.6733,0,79.34,2.375,190,1.132,1.905,0,0,52.49,60.5,33.91,35.79
"2017-02-05 20:00:00",273925,1.252,118.1,2.649,100,0.02359241,0,853.751,0,79.05,2.378,168,1.14,1.91,0.007582529,0.032,52.55,60.5,33.92,35.79
"2017-02-05 20:10:00",273926,1.344,107.4,2.541,100,0.01572851,0,853.5384,0,78.69,2.382,179,1.142,1.918,0,0,52.55,60.5,33.92,35.79
"2017-02-05 20:20:00",273927,1.147,120.1,2.565,100,0.003932196,0,853.4199,0,78.02,2.389,217,1.147,1.925,0,0,52.55,60.5,33.92,35.79
"2017-02-05 20:30:00",273928,0.8,95.9,2.42,100,0,0,853.3882,0,78.66,2.383,200,1.145,1.917,0,0,52.55,60.5,33.92,35.79
"2017-02-05 20:40:00",273929,1.177,121.5,2.399,100,0,0,853.2028,0.5,78.5,2.385,192,1.141,1.914,0.02274768,0,52.49,60.5,33.91,35.79
"2017-02-05 20:50:00",273930,0.957,113.1,2.28,100,0.01179537,0,853.3166,0,78.37,2.386,178,1.127,1.894,0.003791078,0,52.55,60.5,33.92,35.79
"2017-02-05 21:00:00",273931,0.69,55.54,2.358,100,0.0432498,0,853.1628,0,77.84,2.392,188,1.123,1.889,0.003790996,0.016,52.49,60.5,33.91,35.79
"2017-02-05 21:10:00",273932,0.83,67.68,2.259,100,0.01572736,0,853.1037,0,78.21,2.388,173,1.124,1.888,0,0,52.49,60.5,33.91,35.79
"2017-02-05 21:20:00",273933,0.774,125.9,2.273,100,0.0117954,0,853.0068,0,78.15,2.389,175,1.119,1.855,0,0,52.55,60.44,33.92,35.78
"2017-02-05 21:30:00",273934,0.989,103.7,2.208,100,0.003931662,0,852.8594,0,77.87,2.391,192,1.114,1.863,0.01137261,0.016,52.49,60.5,33.91,35.79
"2017-02-05 21:40:00",273935,0.906,52.64,2.173,100,0.007863333,0,852.7161,0,77.38,2.397,170,1.113,1.877,0,0,52.55,60.5,33.92,35.79
"2017-02-05 21:50:00",273936,0.862,38.2,2.084,100,0.007863618,0,852.6066,0,77.15,2.4,179,1.122,1.879,0,0,52.49,60.5,33.91,35.79
"2017-02-05 22:00:00",273937,1.071,81.8,1.986,100,0.01965894,0,852.3684,0,77.46,2.396,181,1.122,1.862,0,0,52.55,60.5,33.92,35.79
"2017-02-05 22:10:00",273938,0.933,66.34,1.967,100,0.03931774,0,852.1535,0,77.69,2.395,205,1.12,1.873,0,0,52.49,60.5,33.91,35.79
"2017-02-05 22:20:00",273939,0.714,76.68,1.882,100,0,0,851.9112,0,77.99,2.392,196,1.122,1.863,0,0,52.49,60.5,33.91,35.79
"2017-02-05 22:30:00",273940,0.686,117.8,1.883,100,0,0,851.8311,0,77.93,2.393,190,1.12,1.843,0,0,52.49,60.5,33.91,35.79
"2017-02-05 22:40:00",273941,0.868,104.6,1.846,100,0,0,851.8417,0,77.67,2.396,190,1.124,1.855,0,0,52.49,60.5,33.91,35.79
"2017-02-05 22:50:00",273942,0.787,85.5,1.708,100,0,0,851.7195,0,77.71,2.396,189,1.123,1.843,0,0,52.55,60.5,33.92,35.79
"2017-02-05 23:00:00",273943,0.671,63.85,1.706,100,0,0,851.5961,0,77.47,2.398,192,1.128,1.859,0,0,52.49,60.5,33.91,35.79
"2017-02-05 23:10:00",273944,0.856,51.29,1.527,100,0,0,851.43,0,77.34,2.4,170,1.129,1.845,0,0,52.49,60.5,33.91,35.79
"2017-02-05 23:20:00",273945,0.614,63.94,1.452,100,0,0,851.3132,0,77.32,2.401,170,1.128,1.836,0,0,52.55,60.5,33.92,35.79
"2017-02-05 23:30:00",273946,0.764,46.9,1.382,100,0,0,851.1296,0,77.2,2.402,171,1.131,1.836,0,0,52.55,60.5,33.92,35.79
"2017-02-05 23:40:00",273947,0.668,46.59,1.383,100,0,0,850.9943,0,77.11,2.403,184,1.14,1.849,0,0,52.49,60.5,33.91,35.79
"2017-02-05 23:50:00",273948,0.665,45.85,1.302,100,0,0,850.8511,0,77.11,2.404,179,1.146,1.858,0,0,52.55,60.5,33.92,35.79
